OBJECT F

Satellite information

Favourite Embed

Satellite Type and Status

UNKNOWNDECAYED

Key statistics

Satellite OBJECT F at a glance.

Uptime

439

Days in orbit

Revolutions

≈ 16.4

Per day

Orbit

SSO

Sun Synchronous Orbit

Inclination

97.4

Latest

Satellite identification and parameters

Extended collection of information and parameters for OBJECT F.

Object identification

Identified? True

Debris? False

Object name: OBJECT F

International designator: 2024-039F

Object number (NORAD): 59056

Object ID (CCSDS): 59056

Country: TO BE DETERMINED/UNKNOWN (TBD)

Current information (Y/N): Y

RCS size: SMALL

Orbital parameters

Decay date: May 13, 2025

Period: 88.055 minutes

Inclination: 97.3883 deg

SMA: 6556.371 km

Apoapsis: 183.834 km

Periapsis: 172.637 km

RAAN: 103.5483 deg

Eccentricy: 0.0008539

Argument of periapsis: 203.6382 deg

Mean anomaly: 156.4524 deg

Mean motion: 16.35337833 rev/day

Mean motion (dot): 0.07301363 rev/day2

B* drag term: 0.0009849 1/REarth

Two-line elements (TLE)

Creation date: May 8, 2025, 3:01 a.m.

Reference frame: TEME

Reference center: EARTH

Epoch: May 6, 2025, 9:32 p.m. UTC

TLE line 0: 0 OBJECT F

TLE line 1: 1 59056U 24039F 25126.89772039 .07301363 25664-5 98490-3 0 9998

TLE line 2: 2 59056 97.3883 103.5483 0008539 203.6382 156.4524 16.35337833 66728

Live tracking on map

Satellite OBJECT F has decayed and is no longer in orbit. No tracking available.

In-orbit conjunctions

Satellite OBJECT F has decayed and is no longer in orbit. No conjunctions available.

Associated space launch

Meteor-M satellites are a new generation of Russian meteorological satellites. Hitchhiking Payloads: SITRO-AIS 13-28, Zorkiy-2M-2, Pars 1 (Iran).

OBJECT F was lifted into orbit during the mission ‘Soyuz 2.1b/Fregat-M | Meteor-M No.2-4 & others’, on board a Soyuz 2.1b/Fregat-M space rocket.

The launch took place on Feb. 29, 2024, 5:43 a.m. from Cosmodrome Site 1S.

For more information about the launch, click the button.

Launch to space Soyuz 2.1b/Fregat-M | Meteor-M No.2-4 & others
Soyuz 2.1b/Fregat-M | Meteor-M No.2-4 & others

Agency: Russian Federal Space Agency (ROSCOSMOS)

Status: Launch Successful

Launch date: Feb. 29, 2024, 5:43 a.m. UTC

Rocket: Soyuz 2.1b/Fregat-M

Launch pad: Cosmodrome Site 1S

Location: Vostochny Cosmodrome, Siberia, Russian Federation

...

Latest news about this satellite

There are no fresh news available about this satellite. Check back as we update our databases every day.


Newsletter sign-up

Weekly statistics, charts and insights to help you stay on top of the space industry.